User: anonymous   Login
Location: Bois de la Silve
(44.4667°N, 6.7833°E)
Time: 18:43:04
(UTC+00:00)
Language:

Cosmos 1980 Rocket - Orbit

View from above orbital plane
View from above orbital plane
View from above satellite
View from above satellite

Ground track
Ground track

The orbit data is extracted from the following two-line orbital elements,

1 19650U 88102B   20262.67587842 +.00000028 +00000-0 +38295-4 0  9990
2 19650 071.0016 033.8783 0014121 181.7076 178.4001 14.15795342644072
Epoch (UTC): 18 September 2020 16:13:15
Eccentricity: 0.0014121
inclination: 71.0016°
perigee height: 829 km
apogee height: 850 km
right ascension of ascending node: 33.8783°
argument of perigee: 181.7076°
revolutions per day: 14.15795342
mean anomaly at epoch: 178.4001°
orbit number at epoch: 64407

The dashed part of the orbit path shows where the satellite is in the earth's shadow,  

DLR